{"data":{"norad_id":58856,"epoch":"2026-09-20T06:47:06.468864Z","epoch_age_seconds":171295,"freshness":"FRESH","line1":"1 58856U 24019D   26263.28271376  .00000817  00000+0  39225-4 0  9993","line2":"2 58856  43.0014 229.8990 0001059 273.7547  86.3183 15.27578330148840","mean_motion":15.2757833,"eccentricity":0.0001059,"inclination_deg":43.0014,"raan_deg":229.899,"arg_perigee_deg":273.7547,"mean_anomaly_deg":86.3183,"bstar":3.9225e-5,"rev_number":14884,"period_min":94.266851769231,"perigee_km":482.32749648786,"apogee_km":483.78069676212,"semimajor_km":6861.191096625,"source":"CELESTRAK","updated_at":"2026-09-21T09:00:33.987657Z"}}